Regional Weather Roundup
Issued by NWS Northern Indiana

Home | Current Version | Previous Version | Graphics & Text | Print | Product List | Glossary On
Versions: 1 2 3 4 5 6 7 8 9 10 11 12 13 14 15 16 17 18 19 20 21 22 23 24 25 26 27 28 29 30 31 32 33 34 35 36 37 38 39 40 41 42 43 44 45 46 47 48 49 50
000
ASUS43 KIWX 290800
RWRIWX

KIWX WEATHER ROUNDUP
NATIONAL WEATHER SERVICE NORTHERN INDIANA
400 AM EDT FRI JUL 29 2016

NOTE: "FAIR" INDICATES FEW OR NO CLOUDS BELOW 12,000 FEET WITH NO
SIGNIFICANT WEATHER AND/OR OBSTRUCTIONS TO VISIBILITY.

* THESE STATIONS ARE NOT UNDER NWS QUALITY CONTROL. THEY ALSO MAY NOT
  REPORT WEATHER SUCH AS PRECIPITATION OR FOG.

INZ001>027-290900-
NORTHERN INDIANA

CITY           SKY/WX    TMP DP  RH WIND       PRES   REMARKS
KNOX*            N/A     63  63 100 CALM      29.90F VSB 1/2
SOUTH BEND     CLEAR     67  66  97 NE3       29.92R
GOSHEN         CLEAR     69  66  90 E3        29.91S FOG
MONTICELLO*    CLEAR     67  63  87 CALM      29.90S
ANGOLA*          N/A     70  63  78 E5        29.93S
FORT WAYNE     PTCLDY    69  67  93 N5        29.91S

$$
INZ028>050-290900-
CENTRAL INDIANA

CITY           SKY/WX    TMP DP  RH WIND       PRES   REMARKS
LAFAYETTE      FOG       68  68 100 CALM      29.89F VSB 1/4
KOKOMO*        CLEAR     66  61  82 CALM      29.91S
MUNCIE*        CLEAR     71  66  84 CALM      29.91S
INDIANAPOLIS   CLEAR     70  67  90 W6        29.91S

$$
MIZ043>046-050>051-056>058-064>065-071>073-077>080-290900-
SOUTHWEST LOWER MICHIGAN

CITY           SKY/WX    TMP DP  RH WIND       PRES   REMARKS
BATTLE CREEK   CLOUDY    68  64  87 E6        29.94S
BENTON HARBOR  CLEAR     67  64  90 E3        29.92S
COLDWATER*     CLOUDY    69  64  85 E5        29.93F
HILLSDALE*     CLOUDY    66  64  91 E3        29.94F
HOLLAND        MOCLDY    68  62  81 E5        29.94F
GRAND RAPIDS   CLOUDY    68  61  78 E7        29.96R
KALAMAZOO      CLOUDY    69  65  86 NE3       29.94R
STURGIS*       CLOUDY    67  66  97 E5        29.92F
THREE RIVERS*  MOCLDY    70  66  88 CALM      29.93S

$$
OHZ001>008-015>018-024>025-290900-
NORTHWEST OHIO

CITY           SKY/WX    TMP DP  RH WIND       PRES   REMARKS
DEFIANCE       CLOUDY    73  67  81 NE5       29.92R
FINDLAY        CLEAR     72  64  76 NE6       29.91S
TOLEDO EXPRESS PTCLDY    71  62  73 NE6       29.92S
TOLEDO METCALF CLEAR     73  66  78 NE3       29.93S
LIMA           CLEAR     67  66  97 NE6       29.91F

$$
AND FOR LAKE MICHIGAN COASTAL AND OPEN LAKE BUOY OBSERVATIONS

STATION/POSITION TEMP    WIND        PRES    VSBY  WAVE
                 AIR SEA DIR/SP/G                  HT/PER
                 (F)     (DEG/KT/KT) (MB)    (MI)  (FT/S)
CALUMET HARBOR    71     330/  4/ 10 1012.6R
MICHIGAN CITY     71      20/  3/  4   N/A
BURNS HARBOR      72      30/  4/  8 1013.2S
SAINT JOSEPH      69      20/  1/  3 1013.9R
SOUTH LAKE BUOY   74 75   70/ 10/ 10 1013.0          3/ 6
4 MI NW BRIDGMAN  71 77   60/  4/  6 1012.7S         2
MICHIGAN CITY     74 77   50/  4/  8   N/A           2/ 6

$$
&&




USA.gov is the U.S. government's official web portal to all federal, state and local government web resources and services.